Time,TemperatureF,DewpointF,PressureIn,WindDirection,WindDirectionDegrees,WindSpeedMPH,WindSpeedGustMPH,Humidity,HourlyPrecipIn,Conditions,Clouds,dailyrainin,SoftwareType,DateUTC
2013-11-10 00:00:00,57.0,46.9,29.83,WSW,247,5.0,9.0,69,0.00,,,0.00,Weather View 32 v70,2013-11-10 05:00:00,
2013-11-10 00:05:00,57.0,46.9,29.83,WSW,247,4.0,9.0,69,0.00,,,0.00,Weather View 32 v70,2013-11-10 05:05:00,
2013-11-10 00:10:00,57.0,46.9,29.80,WSW,247,6.0,9.0,69,0.00,,,0.00,Weather View 32 v70,2013-11-10 05:10:00,
2013-11-10 00:15:00,57.0,47.3,29.80,WSW,247,6.0,9.0,70,0.00,,,0.00,Weather View 32 v70,2013-11-10 05:15:00,
2013-11-10 00:20:00,57.0,47.3,29.81,WSW,247,6.0,9.0,70,0.00,,,0.00,Weather View 32 v70,2013-11-10 05:20:00,
2013-11-10 00:25:00,57.0,47.3,29.81,WSW,247,6.0,9.0,70,0.00,,,0.00,Weather View 32 v70,2013-11-10 05:25:00,
2013-11-10 00:30:00,57.0,47.3,29.80,WSW,247,4.0,9.0,70,0.00,,,0.00,Weather View 32 v70,2013-11-10 05:30:00,
2013-11-10 00:35:00,57.0,47.3,29.80,WSW,247,5.0,9.0,70,0.00,,,0.00,Weather View 32 v70,2013-11-10 05:35:00,
2013-11-10 00:40:00,57.0,47.3,29.81,WSW,247,6.0,9.0,70,0.00,,,0.00,Weather View 32 v70,2013-11-10 05:40:00,
2013-11-10 00:45:00,57.0,47.3,29.81,WSW,247,6.0,8.0,70,0.00,,,0.00,Weather View 32 v70,2013-11-10 05:45:00,
2013-11-10 00:50:00,57.0,47.7,29.80,WSW,247,7.0,8.0,71,0.00,,,0.00,Weather View 32 v70,2013-11-10 05:50:00,
2013-11-10 00:55:00,57.0,47.7,29.80,WSW,247,6.0,8.0,71,0.00,,,0.00,Weather View 32 v70,2013-11-10 05:55:00,
2013-11-10 01:00:00,57.0,47.7,29.79,WSW,247,7.0,8.0,71,0.00,,,0.00,Weather View 32 v70,2013-11-10 06:00:00,
2013-11-10 01:05:00,57.0,47.3,29.79,WSW,247,6.0,8.0,70,0.00,,,0.00,Weather View 32 v70,2013-11-10 06:05:00,
2013-11-10 01:10:00,57.0,47.3,29.79,WSW,247,5.0,8.0,70,0.00,,,0.00,Weather View 32 v70,2013-11-10 06:10:00,
2013-11-10 01:15:00,57.0,47.3,29.79,WSW,247,6.0,8.0,70,0.00,,,0.00,Weather View 32 v70,2013-11-10 06:15:00,
2013-11-10 01:20:00,56.0,46.3,29.79,WSW,247,6.0,8.0,70,0.00,,,0.00,Weather View 32 v70,2013-11-10 06:20:00,
2013-11-10 01:25:00,56.0,46.3,29.79,WSW,247,5.0,8.0,70,0.00,,,0.00,Weather View 32 v70,2013-11-10 06:25:00,
2013-11-10 01:30:00,56.0,46.3,29.82,WSW,247,3.0,8.0,70,0.00,,,0.00,Weather View 32 v70,2013-11-10 06:30:00,
2013-11-10 01:36:00,56.0,46.3,29.82,WSW,247,6.0,8.0,70,0.00,,,0.00,Weather View 32 v70,2013-11-10 06:36:00,
2013-11-10 01:45:00,56.0,46.0,29.81,WSW,247,4.0,8.0,69,0.00,,,0.00,Weather View 32 v70,2013-11-10 06:45:00,
2013-11-10 01:50:00,56.0,46.0,29.79,WSW,247,6.0,8.0,69,0.00,,,0.00,Weather View 32 v70,2013-11-10 06:50:00,
2013-11-10 01:55:00,56.0,46.0,29.79,WSW,247,5.0,9.0,69,0.00,,,0.00,Weather View 32 v70,2013-11-10 06:55:00,
2013-11-10 02:00:00,56.0,46.0,29.82,WSW,247,7.0,9.0,69,0.00,,,0.00,Weather View 32 v70,2013-11-10 07:00:00,
2013-11-10 02:05:00,56.0,46.0,29.82,WSW,247,7.0,9.0,69,0.00,,,0.00,Weather View 32 v70,2013-11-10 07:05:00,
2013-11-10 02:10:00,56.0,46.0,29.79,WSW,247,7.0,9.0,69,0.00,,,0.00,Weather View 32 v70,2013-11-10 07:10:00,
2013-11-10 02:15:00,56.0,46.0,29.79,WSW,247,5.0,9.0,69,0.00,,,0.00,Weather View 32 v70,2013-11-10 07:15:00,
2013-11-10 02:20:00,56.0,46.0,29.81,WSW,247,7.0,9.0,69,0.00,,,0.00,Weather View 32 v70,2013-11-10 07:20:00,
2013-11-10 02:25:00,56.0,46.0,29.81,WSW,247,7.0,9.0,69,0.00,,,0.00,Weather View 32 v70,2013-11-10 07:25:00,
2013-11-10 02:30:00,56.0,46.0,29.79,WSW,247,7.0,9.0,69,0.00,,,0.00,Weather View 32 v70,2013-11-10 07:30:00,
2013-11-10 02:35:00,56.0,46.0,29.79,WSW,247,6.0,9.0,69,0.00,,,0.00,Weather View 32 v70,2013-11-10 07:35:00,
2013-11-10 02:45:00,55.0,45.0,29.79,WSW,247,9.0,12.0,69,0.00,,,0.00,Weather View 32 v70,2013-11-10 07:45:00,
2013-11-10 02:50:00,55.0,45.0,29.81,WSW,247,7.0,12.0,69,0.00,,,0.00,Weather View 32 v70,2013-11-10 07:50:00,
2013-11-10 02:55:00,55.0,44.6,29.81,WSW,247,6.0,12.0,68,0.00,,,0.00,Weather View 32 v70,2013-11-10 07:55:00,
2013-11-10 03:00:00,55.0,44.6,29.80,WSW,247,7.0,12.0,68,0.00,,,0.00,Weather View 32 v70,2013-11-10 08:00:00,
2013-11-10 03:05:00,55.0,44.6,29.80,WSW,247,6.0,12.0,68,0.00,,,0.00,Weather View 32 v70,2013-11-10 08:05:00,
2013-11-10 03:10:00,55.0,44.6,29.80,WSW,247,7.0,12.0,68,0.00,,,0.00,Weather View 32 v70,2013-11-10 08:10:00,
2013-11-10 03:15:00,55.0,44.6,29.80,WSW,247,10.0,12.0,68,0.00,,,0.00,Weather View 32 v70,2013-11-10 08:15:00,
2013-11-10 03:20:00,54.0,43.7,29.81,WSW,247,4.0,12.0,68,0.00,,,0.00,Weather View 32 v70,2013-11-10 08:20:00,
2013-11-10 03:25:00,54.0,43.7,29.81,WSW,247,6.0,12.0,68,0.00,,,0.00,Weather View 32 v70,2013-11-10 08:25:00,
2013-11-10 03:30:00,54.0,43.7,29.80,WSW,247,4.0,12.0,68,0.00,,,0.00,Weather View 32 v70,2013-11-10 08:30:00,
2013-11-10 03:35:00,54.0,43.7,29.80,WSW,247,5.0,12.0,68,0.00,,,0.00,Weather View 32 v70,2013-11-10 08:35:00,
2013-11-10 03:45:00,54.0,43.7,29.81,WSW,247,6.0,11.0,68,0.00,,,0.00,Weather View 32 v70,2013-11-10 08:45:00,
2013-11-10 03:50:00,54.0,43.7,29.81,WSW,247,7.0,11.0,68,0.00,,,0.00,Weather View 32 v70,2013-11-10 08:50:00,
2013-11-10 03:55:00,54.0,43.3,29.81,WSW,247,3.0,11.0,67,0.00,,,0.00,Weather View 32 v70,2013-11-10 08:55:00,
2013-11-10 04:00:00,54.0,43.3,29.80,WSW,247,6.0,11.0,67,0.00,,,0.00,Weather View 32 v70,2013-11-10 09:00:00,
2013-11-10 04:10:00,54.0,43.3,29.81,WSW,247,6.0,11.0,67,0.00,,,0.00,Weather View 32 v70,2013-11-10 09:10:00,
2013-11-10 04:20:00,54.0,43.7,29.79,WSW,247,7.0,8.0,68,0.00,,,0.00,Weather View 32 v70,2013-11-10 09:20:00,
2013-11-10 04:25:00,54.0,43.7,29.79,WSW,247,5.0,8.0,68,0.00,,,0.00,Weather View 32 v70,2013-11-10 09:25:00,
2013-11-10 04:30:00,54.0,43.3,29.82,WSW,247,6.0,8.0,67,0.00,,,0.00,Weather View 32 v70,2013-11-10 09:30:00,
2013-11-10 04:35:00,54.0,43.3,29.82,WSW,247,5.0,8.0,67,0.00,,,0.00,Weather View 32 v70,2013-11-10 09:35:00,
2013-11-10 04:45:00,54.0,43.3,29.80,WSW,247,6.0,8.0,67,0.00,,,0.00,Weather View 32 v70,2013-11-10 09:45:00,
2013-11-10 04:50:00,54.0,43.7,29.80,WSW,247,6.0,8.0,68,0.00,,,0.00,Weather View 32 v70,2013-11-10 09:50:00,
2013-11-10 04:55:00,53.0,42.3,29.80,WSW,247,6.0,8.0,67,0.00,,,0.00,Weather View 32 v70,2013-11-10 09:55:00,
2013-11-10 05:00:00,53.0,42.3,29.83,WSW,247,7.0,8.0,67,0.00,,,0.00,Weather View 32 v70,2013-11-10 10:00:00,
2013-11-10 05:05:00,53.0,42.3,29.83,WSW,247,5.0,8.0,67,0.00,,,0.00,Weather View 32 v70,2013-11-10 10:05:00,
2013-11-10 05:10:00,53.0,42.3,29.81,WSW,247,6.0,8.0,67,0.00,,,0.00,Weather View 32 v70,2013-11-10 10:10:00,
2013-11-10 05:15:00,53.0,42.3,29.81,WSW,247,8.0,8.0,67,0.00,,,0.00,Weather View 32 v70,2013-11-10 10:15:00,
2013-11-10 05:20:00,53.0,42.3,29.81,WSW,247,5.0,8.0,67,0.00,,,0.00,Weather View 32 v70,2013-11-10 10:20:00,
2013-11-10 05:30:00,53.0,42.3,29.83,WSW,247,5.0,8.0,67,0.00,,,0.00,Weather View 32 v70,2013-11-10 10:30:00,
2013-11-10 05:35:00,53.0,42.7,29.83,WSW,247,6.0,8.0,68,0.00,,,0.00,Weather View 32 v70,2013-11-10 10:35:00,
2013-11-10 05:39:00,53.0,42.7,29.83,WSW,247,6.0,8.0,68,0.00,,,0.00,Weather View 32 v70,2013-11-10 10:39:00,
2013-11-10 05:45:00,53.0,42.7,29.81,WSW,247,6.0,8.0,68,0.00,,,0.00,Weather View 32 v70,2013-11-10 10:45:00,
2013-11-10 05:50:00,53.0,42.7,29.81,WSW,247,6.0,8.0,68,0.00,,,0.00,Weather View 32 v70,2013-11-10 10:50:00,
2013-11-10 06:00:00,53.0,42.7,29.81,WSW,247,4.0,8.0,68,0.00,,,0.00,Weather View 32 v70,2013-11-10 11:00:00,
2013-11-10 06:05:00,53.0,42.7,29.81,WSW,247,7.0,8.0,68,0.00,,,0.00,Weather View 32 v70,2013-11-10 11:05:00,
2013-11-10 06:10:00,52.0,41.7,29.83,WSW,247,6.0,8.0,68,0.00,,,0.00,Weather View 32 v70,2013-11-10 11:10:00,
2013-11-10 06:15:00,52.0,41.7,29.83,WSW,247,7.0,9.0,68,0.00,,,0.00,Weather View 32 v70,2013-11-10 11:15:00,
2013-11-10 06:20:00,52.0,41.7,29.84,WSW,247,6.0,9.0,68,0.00,,,0.00,Weather View 32 v70,2013-11-10 11:20:00,
2013-11-10 06:25:00,52.0,41.7,29.84,WSW,247,6.0,9.0,68,0.00,,,0.00,Weather View 32 v70,2013-11-10 11:25:00,
2013-11-10 06:30:00,52.0,41.7,29.82,WSW,247,6.0,9.0,68,0.00,,,0.00,Weather View 32 v70,2013-11-10 11:30:00,
2013-11-10 06:35:00,52.0,41.7,29.82,WSW,247,6.0,9.0,68,0.00,,,0.00,Weather View 32 v70,2013-11-10 11:35:00,
2013-11-10 06:40:00,52.0,41.7,29.83,WSW,247,6.0,9.0,68,0.00,,,0.00,Weather View 32 v70,2013-11-10 11:40:00,
2013-11-10 06:50:00,52.0,41.7,29.83,WSW,247,6.0,9.0,68,0.00,,,0.00,Weather View 32 v70,2013-11-10 11:50:00,
2013-11-10 06:55:00,52.0,41.7,29.83,WSW,247,6.0,9.0,68,0.00,,,0.00,Weather View 32 v70,2013-11-10 11:55:00,
2013-11-10 07:00:00,52.0,41.7,29.82,WSW,247,6.0,9.0,68,0.00,,,0.00,Weather View 32 v70,2013-11-10 12:00:00,
2013-11-10 07:05:00,52.0,41.7,29.82,WSW,247,6.0,9.0,68,0.00,,,0.00,Weather View 32 v70,2013-11-10 12:05:00,
2013-11-10 07:10:00,52.0,41.7,29.84,WSW,247,6.0,9.0,68,0.00,,,0.00,Weather View 32 v70,2013-11-10 12:10:00,
2013-11-10 07:15:00,52.0,42.1,29.84,WSW,247,6.0,9.0,69,0.00,,,0.00,Weather View 32 v70,2013-11-10 12:15:00,
2013-11-10 07:20:00,53.0,43.1,29.84,WSW,247,7.0,9.0,69,0.00,,,0.00,Weather View 32 v70,2013-11-10 12:20:00,
2013-11-10 07:30:00,53.0,43.1,29.83,WSW,247,5.0,13.0,69,0.00,,,0.00,Weather View 32 v70,2013-11-10 12:30:00,
2013-11-10 07:35:00,53.0,43.1,29.83,WSW,247,7.0,13.0,69,0.00,,,0.00,Weather View 32 v70,2013-11-10 12:35:00,
2013-11-10 07:40:00,54.0,44.4,29.83,WSW,247,8.0,13.0,70,0.00,,,0.00,Weather View 32 v70,2013-11-10 12:40:00,
2013-11-10 07:50:00,54.0,44.4,29.83,WSW,247,7.0,13.0,70,0.00,,,0.00,Weather View 32 v70,2013-11-10 12:50:00,
2013-11-10 07:55:00,54.0,44.4,29.83,WSW,247,7.0,13.0,70,0.00,,,0.00,Weather View 32 v70,2013-11-10 12:55:00,
2013-11-10 08:00:00,55.0,45.8,29.83,WSW,247,6.0,13.0,71,0.00,,,0.00,Weather View 32 v70,2013-11-10 13:00:00,
2013-11-10 08:10:00,55.0,45.8,29.85,WSW,247,7.0,13.0,71,0.00,,,0.00,Weather View 32 v70,2013-11-10 13:10:00,
2013-11-10 08:15:00,56.0,46.7,29.85,WSW,247,6.0,13.0,71,0.00,,,0.00,Weather View 32 v70,2013-11-10 13:15:00,
2013-11-10 08:20:00,56.0,46.7,29.82,WSW,247,8.0,13.0,71,0.00,,,0.00,Weather View 32 v70,2013-11-10 13:20:00,
2013-11-10 08:25:00,56.0,46.7,29.82,WSW,247,6.0,13.0,71,0.00,,,0.00,Weather View 32 v70,2013-11-10 13:25:00,
2013-11-10 08:30:00,56.0,46.7,29.83,WSW,247,10.0,13.0,71,0.00,,,0.00,Weather View 32 v70,2013-11-10 13:30:00,
2013-11-10 08:40:00,57.0,47.7,29.85,WSW,247,9.0,13.0,71,0.00,,,0.00,Weather View 32 v70,2013-11-10 13:40:00,
2013-11-10 08:45:00,57.0,47.7,29.85,WSW,247,9.0,13.0,71,0.00,,,0.00,Weather View 32 v70,2013-11-10 13:45:00,
2013-11-10 08:50:00,57.0,47.7,29.83,WSW,247,6.0,13.0,71,0.00,,,0.00,Weather View 32 v70,2013-11-10 13:50:00,
2013-11-10 08:55:00,57.0,47.7,29.83,WSW,247,8.0,13.0,71,0.00,,,0.00,Weather View 32 v70,2013-11-10 13:55:00,
2013-11-10 09:00:00,57.0,47.7,29.83,WSW,247,8.0,13.0,71,0.00,,,0.00,Weather View 32 v70,2013-11-10 14:00:00,
2013-11-10 09:05:00,57.0,47.7,29.83,WSW,247,8.0,13.0,71,0.00,,,0.00,Weather View 32 v70,2013-11-10 14:05:00,
2013-11-10 09:10:00,57.0,47.7,29.81,WSW,247,6.0,13.0,71,0.00,,,0.00,Weather View 32 v70,2013-11-10 14:10:00,
2013-11-10 09:15:00,57.0,47.7,29.81,WSW,247,7.0,13.0,71,0.00,,,0.00,Weather View 32 v70,2013-11-10 14:15:00,
2013-11-10 09:25:00,58.0,48.6,29.85,WSW,247,9.0,15.0,71,0.00,,,0.00,Weather View 32 v70,2013-11-10 14:25:00,
2013-11-10 09:30:00,58.0,48.6,29.85,WSW,247,14.0,19.0,71,0.00,,,0.00,Weather View 32 v70,2013-11-10 14:30:00,
2013-11-10 09:35:00,58.0,48.6,29.85,WSW,247,10.0,19.0,71,0.00,,,0.00,Weather View 32 v70,2013-11-10 14:35:00,
2013-11-10 09:40:00,58.0,48.6,29.82,WSW,247,10.0,19.0,71,0.00,,,0.00,Weather View 32 v70,2013-11-10 14:40:00,
2013-11-10 09:45:00,58.0,49.0,29.82,WSW,247,11.0,19.0,72,0.00,,,0.00,Weather View 32 v70,2013-11-10 14:45:00,
2013-11-10 09:50:00,58.0,48.6,29.84,WSW,247,9.0,19.0,71,0.00,,,0.00,Weather View 32 v70,2013-11-10 14:50:00,
2013-11-10 09:55:00,59.0,49.6,29.84,WSW,247,11.0,19.0,71,0.00,,,0.00,Weather View 32 v70,2013-11-10 14:55:00,
2013-11-10 10:05:00,60.0,50.9,29.84,WSW,247,7.0,19.0,72,0.00,,,0.00,Weather View 32 v70,2013-11-10 15:05:00,
2013-11-10 10:10:00,59.0,50.0,29.80,WSW,247,10.0,19.0,72,0.00,,,0.00,Weather View 32 v70,2013-11-10 15:10:00,
2013-11-10 10:15:00,59.0,50.0,29.80,WSW,247,6.0,19.0,72,0.00,,,0.00,Weather View 32 v70,2013-11-10 15:15:00,
2013-11-10 10:20:00,60.0,51.3,29.79,WSW,247,10.0,19.0,73,0.00,,,0.00,Weather View 32 v70,2013-11-10 15:20:00,
2013-11-10 10:25:00,61.0,52.3,29.79,WSW,247,9.0,19.0,73,0.00,,,0.00,Weather View 32 v70,2013-11-10 15:25:00,
2013-11-10 10:30:00,62.0,53.2,29.82,WSW,247,9.0,18.0,73,0.00,,,0.00,Weather View 32 v70,2013-11-10 15:30:00,
2013-11-10 10:35:00,61.0,52.3,29.82,WSW,247,12.0,15.0,73,0.00,,,0.00,Weather View 32 v70,2013-11-10 15:35:00,
2013-11-10 10:40:00,62.0,53.2,29.77,WSW,247,17.0,17.0,73,0.00,,,0.00,Weather View 32 v70,2013-11-10 15:40:00,
2013-11-10 10:50:00,62.0,53.6,29.77,WSW,247,11.0,17.0,74,0.00,,,0.00,Weather View 32 v70,2013-11-10 15:50:00,
2013-11-10 10:55:00,62.0,53.6,29.77,WSW,247,10.0,18.0,74,0.00,,,0.00,Weather View 32 v70,2013-11-10 15:55:00,
2013-11-10 11:00:00,63.0,54.6,29.77,WSW,247,10.0,18.0,74,0.00,,,0.00,Weather View 32 v70,2013-11-10 16:00:00,
2013-11-10 11:05:00,63.0,54.6,29.77,WSW,247,16.0,18.0,74,0.00,,,0.00,Weather View 32 v70,2013-11-10 16:05:00,
2013-11-10 11:10:00,63.0,54.6,29.76,WSW,247,10.0,18.0,74,0.00,,,0.00,Weather View 32 v70,2013-11-10 16:10:00,
2013-11-10 11:15:00,63.0,54.6,29.76,WSW,247,11.0,18.0,74,0.00,,,0.00,Weather View 32 v70,2013-11-10 16:15:00,
2013-11-10 11:20:00,63.0,54.6,29.76,WSW,247,9.0,18.0,74,0.00,,,0.00,Weather View 32 v70,2013-11-10 16:20:00,
2013-11-10 11:30:00,64.0,55.5,29.76,WSW,247,11.0,18.0,74,0.00,,,0.00,Weather View 32 v70,2013-11-10 16:30:00,
2013-11-10 11:35:00,63.0,54.6,29.76,WSW,247,14.0,18.0,74,0.00,,,0.00,Weather View 32 v70,2013-11-10 16:35:00,
2013-11-10 11:40:00,64.0,55.5,29.76,WSW,247,6.0,18.0,74,0.00,,,0.00,Weather View 32 v70,2013-11-10 16:40:00,
2013-11-10 11:45:00,64.0,55.5,29.76,WSW,247,12.0,18.0,74,0.00,,,0.00,Weather View 32 v70,2013-11-10 16:45:00,
2013-11-10 11:50:00,64.0,55.5,29.74,WSW,247,10.0,18.0,74,0.00,,,0.00,Weather View 32 v70,2013-11-10 16:50:00,
2013-11-10 11:55:00,64.0,55.5,29.74,WSW,247,3.0,17.0,74,0.00,,,0.00,Weather View 32 v70,2013-11-10 16:55:00,
2013-11-10 12:05:00,64.0,55.5,29.74,WSW,247,11.0,16.0,74,0.00,,,0.00,Weather View 32 v70,2013-11-10 17:05:00,
2013-11-10 12:10:00,64.0,55.5,29.74,WSW,247,10.0,16.0,74,0.00,,,0.00,Weather View 32 v70,2013-11-10 17:10:00,
2013-11-10 12:15:00,64.0,55.5,29.74,WSW,247,13.0,16.0,74,0.00,,,0.00,Weather View 32 v70,2013-11-10 17:15:00,
2013-11-10 12:20:00,64.0,55.5,29.72,WSW,247,10.0,16.0,74,0.00,,,0.00,Weather View 32 v70,2013-11-10 17:20:00,
2013-11-10 12:25:00,64.0,55.5,29.72,WSW,247,9.0,16.0,74,0.00,,,0.00,Weather View 32 v70,2013-11-10 17:25:00,
2013-11-10 12:30:00,64.0,55.5,29.72,WSW,247,15.0,16.0,74,0.00,,,0.00,Weather View 32 v70,2013-11-10 17:30:00,
2013-11-10 12:35:00,64.0,55.5,29.72,WSW,247,10.0,16.0,74,0.00,,,0.00,Weather View 32 v70,2013-11-10 17:35:00,
2013-11-10 12:42:00,63.0,54.6,29.71,WSW,247,6.0,16.0,74,0.00,,,0.00,Weather View 32 v70,2013-11-10 17:42:00,
2013-11-10 12:50:00,64.0,55.5,29.73,WSW,247,9.0,16.0,74,0.00,,,0.00,Weather View 32 v70,2013-11-10 17:50:00,
2013-11-10 12:55:00,64.0,55.5,29.73,WSW,247,11.0,16.0,74,0.00,,,0.00,Weather View 32 v70,2013-11-10 17:55:00,
2013-11-10 13:00:00,64.0,55.5,29.70,WSW,247,10.0,16.0,74,0.00,,,0.00,Weather View 32 v70,2013-11-10 18:00:00,
2013-11-10 13:05:00,64.0,55.5,29.70,WSW,247,7.0,16.0,74,0.00,,,0.00,Weather View 32 v70,2013-11-10 18:05:00,
2013-11-10 13:10:00,63.0,54.6,29.71,WSW,247,12.0,16.0,74,0.00,,,0.00,Weather View 32 v70,2013-11-10 18:10:00,
2013-11-10 13:15:00,64.0,55.5,29.71,WSW,247,10.0,16.0,74,0.00,,,0.00,Weather View 32 v70,2013-11-10 18:15:00,
2013-11-10 13:25:00,64.0,55.5,29.71,WSW,247,6.0,16.0,74,0.00,,,0.00,Weather View 32 v70,2013-11-10 18:25:00,
2013-11-10 13:30:00,64.0,55.5,29.69,WSW,247,10.0,15.0,74,0.00,,,0.00,Weather View 32 v70,2013-11-10 18:30:00,
2013-11-10 13:35:00,65.0,56.5,29.69,WSW,247,8.0,14.0,74,0.00,,,0.00,Weather View 32 v70,2013-11-10 18:35:00,
2013-11-10 13:40:00,65.0,56.5,29.71,WSW,247,11.0,14.0,74,0.00,,,0.00,Weather View 32 v70,2013-11-10 18:40:00,
2013-11-10 13:45:00,65.0,56.5,29.71,WSW,247,7.0,14.0,74,0.00,,,0.00,Weather View 32 v70,2013-11-10 18:45:00,
2013-11-10 13:50:00,65.0,56.5,29.68,WSW,247,9.0,14.0,74,0.00,,,0.00,Weather View 32 v70,2013-11-10 18:50:00,
2013-11-10 13:55:00,65.0,56.5,29.68,WSW,247,9.0,14.0,74,0.00,,,0.00,Weather View 32 v70,2013-11-10 18:55:00,
2013-11-10 14:05:00,66.0,57.4,29.69,WSW,247,7.0,14.0,74,0.00,,,0.00,Weather View 32 v70,2013-11-10 19:05:00,
2013-11-10 14:10:00,66.0,57.4,29.67,WSW,247,7.0,14.0,74,0.00,,,0.00,Weather View 32 v70,2013-11-10 19:10:00,
2013-11-10 14:15:00,66.0,57.4,29.67,WSW,247,7.0,14.0,74,0.00,,,0.00,Weather View 32 v70,2013-11-10 19:15:00,
2013-11-10 14:20:00,66.0,57.4,29.70,WSW,247,8.0,14.0,74,0.00,,,0.00,Weather View 32 v70,2013-11-10 19:20:00,
2013-11-10 14:25:00,66.0,57.4,29.70,WSW,247,9.0,14.0,74,0.00,,,0.00,Weather View 32 v70,2013-11-10 19:25:00,
2013-11-10 14:30:00,66.0,57.4,29.67,WSW,247,10.0,14.0,74,0.00,,,0.00,Weather View 32 v70,2013-11-10 19:30:00,
2013-11-10 14:35:00,67.0,58.4,29.67,WSW,247,7.0,14.0,74,0.00,,,0.00,Weather View 32 v70,2013-11-10 19:35:00,
2013-11-10 14:40:00,66.0,57.4,29.65,WSW,247,10.0,14.0,74,0.00,,,0.00,Weather View 32 v70,2013-11-10 19:40:00,
2013-11-10 14:50:00,67.0,58.4,29.67,WSW,247,10.0,14.0,74,0.00,,,0.00,Weather View 32 v70,2013-11-10 19:50:00,
2013-11-10 14:55:00,66.0,57.4,29.67,WSW,247,6.0,14.0,74,0.00,,,0.00,Weather View 32 v70,2013-11-10 19:55:00,
2013-11-10 15:05:00,67.0,58.4,29.68,WSW,247,9.0,14.0,74,0.00,,,0.00,Weather View 32 v70,2013-11-10 20:05:00,
2013-11-10 15:10:00,67.0,58.4,29.65,WSW,247,7.0,14.0,74,0.00,,,0.00,Weather View 32 v70,2013-11-10 20:10:00,
2013-11-10 15:15:00,66.0,57.4,29.65,WSW,247,8.0,14.0,74,0.00,,,0.00,Weather View 32 v70,2013-11-10 20:15:00,
2013-11-10 15:20:00,66.0,57.4,29.66,WSW,247,7.0,14.0,74,0.00,,,0.00,Weather View 32 v70,2013-11-10 20:20:00,
2013-11-10 15:30:00,66.0,57.4,29.65,WSW,247,9.0,14.0,74,0.00,,,0.00,Weather View 32 v70,2013-11-10 20:30:00,
2013-11-10 15:35:00,66.0,57.4,29.65,WSW,247,9.0,13.0,74,0.00,,,0.00,Weather View 32 v70,2013-11-10 20:35:00,
2013-11-10 15:40:00,67.0,58.4,29.67,WSW,247,7.0,13.0,74,0.00,,,0.00,Weather View 32 v70,2013-11-10 20:40:00,
2013-11-10 15:45:00,67.0,58.4,29.67,WSW,247,10.0,13.0,74,0.00,,,0.00,Weather View 32 v70,2013-11-10 20:45:00,
2013-11-10 15:50:00,66.0,57.4,29.65,WSW,247,10.0,13.0,74,0.00,,,0.00,Weather View 32 v70,2013-11-10 20:50:00,
2013-11-10 15:55:00,67.0,58.4,29.65,WSW,247,9.0,13.0,74,0.00,,,0.00,Weather View 32 v70,2013-11-10 20:55:00,
2013-11-10 16:00:00,66.0,57.4,29.65,WSW,247,10.0,13.0,74,0.00,,,0.00,Weather View 32 v70,2013-11-10 21:00:00,
2013-11-10 16:10:00,66.0,57.4,29.68,WSW,247,9.0,13.0,74,0.00,,,0.00,Weather View 32 v70,2013-11-10 21:10:00,
2013-11-10 16:15:00,66.0,57.4,29.68,WSW,247,6.0,13.0,74,0.00,,,0.00,Weather View 32 v70,2013-11-10 21:15:00,
2013-11-10 16:20:00,66.0,57.4,29.66,WSW,247,8.0,13.0,74,0.00,,,0.00,Weather View 32 v70,2013-11-10 21:20:00,
2013-11-10 16:25:00,66.0,57.4,29.66,WSW,247,6.0,13.0,74,0.00,,,0.00,Weather View 32 v70,2013-11-10 21:25:00,
2013-11-10 16:30:00,66.0,57.4,29.67,WSW,247,9.0,13.0,74,0.00,,,0.00,Weather View 32 v70,2013-11-10 21:30:00,
2013-11-10 16:35:00,65.0,56.5,29.67,WSW,247,9.0,13.0,74,0.00,,,0.00,Weather View 32 v70,2013-11-10 21:35:00,
2013-11-10 16:40:00,65.0,56.5,29.69,WSW,247,9.0,13.0,74,0.00,,,0.00,Weather View 32 v70,2013-11-10 21:40:00,
2013-11-10 16:45:00,65.0,56.5,29.69,WSW,247,10.0,13.0,74,0.00,,,0.00,Weather View 32 v70,2013-11-10 21:45:00,
2013-11-10 16:55:00,64.0,55.5,29.67,WSW,247,8.0,13.0,74,0.00,,,0.00,Weather View 32 v70,2013-11-10 21:55:00,
2013-11-10 17:00:00,64.0,55.5,29.69,WSW,247,7.0,13.0,74,0.00,,,0.00,Weather View 32 v70,2013-11-10 22:00:00,
2013-11-10 17:05:00,64.0,55.5,29.69,WSW,247,8.0,12.0,74,0.00,,,0.00,Weather View 32 v70,2013-11-10 22:05:00,
2013-11-10 17:10:00,63.0,54.6,29.67,WSW,247,9.0,12.0,74,0.00,,,0.00,Weather View 32 v70,2013-11-10 22:10:00,
2013-11-10 17:15:00,63.0,54.6,29.67,WSW,247,7.0,12.0,74,0.00,,,0.00,Weather View 32 v70,2013-11-10 22:15:00,
2013-11-10 17:20:00,62.0,53.6,29.70,WSW,247,8.0,12.0,74,0.00,,,0.00,Weather View 32 v70,2013-11-10 22:20:00,
2013-11-10 17:30:00,62.0,53.6,29.69,WSW,247,7.0,12.0,74,0.00,,,0.00,Weather View 32 v70,2013-11-10 22:30:00,
2013-11-10 17:35:00,62.0,53.6,29.69,WSW,247,7.0,12.0,74,0.00,,,0.00,Weather View 32 v70,2013-11-10 22:35:00,
2013-11-10 17:40:00,61.0,52.6,29.72,WSW,247,6.0,12.0,74,0.00,,,0.00,Weather View 32 v70,2013-11-10 22:40:00,
2013-11-10 17:45:00,61.0,52.6,29.72,WSW,247,6.0,12.0,74,0.00,,,0.00,Weather View 32 v70,2013-11-10 22:45:00,
2013-11-10 17:55:00,61.0,52.6,29.73,WSW,247,6.0,10.0,74,0.00,,,0.00,Weather View 32 v70,2013-11-10 22:55:00,
2013-11-10 18:00:00,61.0,52.6,29.71,WSW,247,6.0,10.0,74,0.00,,,0.00,Weather View 32 v70,2013-11-10 23:00:00,
2013-11-10 18:10:00,61.0,52.6,29.71,WSW,247,7.0,9.0,74,0.00,,,0.00,Weather View 32 v70,2013-11-10 23:10:00,
2013-11-10 18:15:00,60.0,51.7,29.71,WSW,247,6.0,9.0,74,0.00,,,0.00,Weather View 32 v70,2013-11-10 23:15:00,
2013-11-10 18:20:00,59.0,50.3,29.72,WSW,247,6.0,8.0,73,0.00,,,0.00,Weather View 32 v70,2013-11-10 23:20:00,
2013-11-10 18:25:00,59.0,50.3,29.72,WSW,247,7.0,8.0,73,0.00,,,0.00,Weather View 32 v70,2013-11-10 23:25:00,
2013-11-10 18:30:00,59.0,50.3,29.74,WSW,247,7.0,8.0,73,0.00,,,0.00,Weather View 32 v70,2013-11-10 23:30:00,
2013-11-10 18:35:00,59.0,50.3,29.74,WSW,247,7.0,8.0,73,0.00,,,0.00,Weather View 32 v70,2013-11-10 23:35:00,
2013-11-10 18:40:00,59.0,50.3,29.75,WSW,247,7.0,9.0,73,0.00,,,0.00,Weather View 32 v70,2013-11-10 23:40:00,
2013-11-10 18:46:00,59.0,50.3,29.75,WSW,247,8.0,9.0,73,0.00,,,0.00,Weather View 32 v70,2013-11-10 23:46:00,
2013-11-10 18:55:00,59.0,50.3,29.73,WSW,247,8.0,10.0,73,0.00,,,0.00,Weather View 32 v70,2013-11-10 23:55:00,
2013-11-10 19:00:00,59.0,50.3,29.73,WSW,247,9.0,10.0,73,0.00,,,0.00,Weather View 32 v70,2013-11-11 00:00:00,
2013-11-10 19:05:00,59.0,50.3,29.73,WSW,247,8.0,10.0,73,0.00,,,0.00,Weather View 32 v70,2013-11-11 00:05:00,
2013-11-10 19:10:00,59.0,50.3,29.73,WSW,247,8.0,10.0,73,0.00,,,0.00,Weather View 32 v70,2013-11-11 00:10:00,
2013-11-10 19:15:00,59.0,50.3,29.73,WSW,247,9.0,10.0,73,0.00,,,0.00,Weather View 32 v70,2013-11-11 00:15:00,
2013-11-10 19:20:00,58.0,49.4,29.73,WSW,247,9.0,10.0,73,0.00,,,0.00,Weather View 32 v70,2013-11-11 00:20:00,
2013-11-10 19:25:00,58.0,49.4,29.73,WSW,247,9.0,10.0,73,0.00,,,0.00,Weather View 32 v70,2013-11-11 00:25:00,
2013-11-10 19:35:00,58.0,49.4,29.75,WSW,247,7.0,10.0,73,0.00,,,0.00,Weather View 32 v70,2013-11-11 00:35:00,
2013-11-10 19:40:00,58.0,49.4,29.75,WSW,247,7.0,10.0,73,0.00,,,0.00,Weather View 32 v70,2013-11-11 00:40:00,
2013-11-10 19:45:00,58.0,49.4,29.75,WSW,247,5.0,10.0,73,0.00,,,0.00,Weather View 32 v70,2013-11-11 00:45:00,
2013-11-10 19:50:00,57.0,48.4,29.73,WSW,247,6.0,10.0,73,0.00,,,0.00,Weather View 32 v70,2013-11-11 00:50:00,
2013-11-10 19:55:00,57.0,48.4,29.73,WSW,247,7.0,10.0,73,0.00,,,0.00,Weather View 32 v70,2013-11-11 00:55:00,
2013-11-10 20:00:00,57.0,48.0,29.73,WSW,247,6.0,10.0,72,0.00,,,0.00,Weather View 32 v70,2013-11-11 01:00:00,
2013-11-10 20:05:00,57.0,48.0,29.73,WSW,247,6.0,10.0,72,0.00,,,0.00,Weather View 32 v70,2013-11-11 01:05:00,
2013-11-10 20:10:00,57.0,48.0,29.75,WSW,247,7.0,10.0,72,0.00,,,0.00,Weather View 32 v70,2013-11-11 01:10:00,
2013-11-10 20:20:00,56.0,47.1,29.77,WSW,247,7.0,10.0,72,0.00,,,0.00,Weather View 32 v70,2013-11-11 01:20:00,
2013-11-10 20:30:00,56.0,47.1,29.75,WSW,247,6.0,10.0,72,0.00,,,0.00,Weather View 32 v70,2013-11-11 01:30:00,
2013-11-10 20:35:00,56.0,47.1,29.75,WSW,247,6.0,10.0,72,0.00,,,0.00,Weather View 32 v70,2013-11-11 01:35:00,
2013-11-10 20:40:00,56.0,47.1,29.75,WSW,247,6.0,8.0,72,0.00,,,0.00,Weather View 32 v70,2013-11-11 01:40:00,
2013-11-10 20:45:00,56.0,47.1,29.75,WSW,247,7.0,8.0,72,0.00,,,0.00,Weather View 32 v70,2013-11-11 01:45:00,
2013-11-10 20:50:00,56.0,46.7,29.77,WSW,247,5.0,8.0,71,0.00,,,0.00,Weather View 32 v70,2013-11-11 01:50:00,
2013-11-10 20:55:00,56.0,47.1,29.77,WSW,247,8.0,8.0,72,0.00,,,0.00,Weather View 32 v70,2013-11-11 01:55:00,
2013-11-10 21:00:00,56.0,46.7,29.75,WSW,247,7.0,9.0,71,0.00,,,0.00,Weather View 32 v70,2013-11-11 02:00:00,
2013-11-10 21:10:00,56.0,47.1,29.77,WSW,247,7.0,9.0,72,0.00,,,0.00,Weather View 32 v70,2013-11-11 02:10:00,
2013-11-10 21:15:00,56.0,47.1,29.77,WSW,247,8.0,9.0,72,0.00,,,0.00,Weather View 32 v70,2013-11-11 02:15:00,
2013-11-10 21:20:00,56.0,47.1,29.77,WSW,247,7.0,9.0,72,0.00,,,0.00,Weather View 32 v70,2013-11-11 02:20:00,
2013-11-10 21:25:00,56.0,47.1,29.77,WSW,247,7.0,9.0,72,0.00,,,0.00,Weather View 32 v70,2013-11-11 02:25:00,
2013-11-10 21:30:00,56.0,47.1,29.75,WSW,247,7.0,9.0,72,0.00,,,0.00,Weather View 32 v70,2013-11-11 02:30:00,
2013-11-10 21:35:00,56.0,47.1,29.75,WSW,247,6.0,9.0,72,0.00,,,0.00,Weather View 32 v70,2013-11-11 02:35:00,
2013-11-10 21:45:00,56.0,47.4,29.75,WSW,247,9.0,9.0,73,0.00,,,0.00,Weather View 32 v70,2013-11-11 02:45:00,
2013-11-10 21:50:00,56.0,47.4,29.78,WSW,247,7.0,9.0,73,0.00,,,0.00,Weather View 32 v70,2013-11-11 02:50:00,
2013-11-10 21:55:00,56.0,47.4,29.78,WSW,247,7.0,9.0,73,0.00,,,0.00,Weather View 32 v70,2013-11-11 02:55:00,
2013-11-10 22:00:00,56.0,47.4,29.77,WSW,247,8.0,9.0,73,0.00,,,0.00,Weather View 32 v70,2013-11-11 03:00:00,
2013-11-10 22:05:00,56.0,47.4,29.77,WSW,247,6.0,10.0,73,0.00,,,0.00,Weather View 32 v70,2013-11-11 03:05:00,
2013-11-10 22:10:00,56.0,47.4,29.76,WSW,247,8.0,10.0,73,0.00,,,0.00,Weather View 32 v70,2013-11-11 03:10:00,
2013-11-10 22:15:00,55.0,46.5,29.76,WSW,247,8.0,10.0,73,0.00,,,0.00,Weather View 32 v70,2013-11-11 03:15:00,
2013-11-10 22:20:00,55.0,46.5,29.77,WSW,247,9.0,10.0,73,0.00,,,0.00,Weather View 32 v70,2013-11-11 03:20:00,
2013-11-10 22:25:00,55.0,46.5,29.77,WSW,247,7.0,10.0,73,0.00,,,0.00,Weather View 32 v70,2013-11-11 03:25:00,
2013-11-10 22:30:00,55.0,46.5,29.78,WSW,247,7.0,10.0,73,0.00,,,0.00,Weather View 32 v70,2013-11-11 03:30:00,
2013-11-10 22:40:00,55.0,46.5,29.76,WSW,247,7.0,10.0,73,0.00,,,0.00,Weather View 32 v70,2013-11-11 03:40:00,
2013-11-10 22:45:00,55.0,46.5,29.76,WSW,247,9.0,10.0,73,0.00,,,0.00,Weather View 32 v70,2013-11-11 03:45:00,
2013-11-10 22:50:00,55.0,46.5,29.78,WSW,247,9.0,11.0,73,0.00,,,0.00,Weather View 32 v70,2013-11-11 03:50:00,
2013-11-10 22:55:00,55.0,46.5,29.78,WSW,247,8.0,12.0,73,0.00,,,0.00,Weather View 32 v70,2013-11-11 03:55:00,
2013-11-10 23:05:00,55.0,46.5,29.76,WSW,247,7.0,12.0,73,0.00,,,0.00,Weather View 32 v70,2013-11-11 04:05:00,
2013-11-10 23:10:00,55.0,46.5,29.78,WSW,247,9.0,12.0,73,0.00,,,0.00,Weather View 32 v70,2013-11-11 04:10:00,
2013-11-10 23:15:00,55.0,46.5,29.78,WSW,247,8.0,12.0,73,0.00,,,0.00,Weather View 32 v70,2013-11-11 04:15:00,
2013-11-10 23:25:00,55.0,46.5,29.76,WSW,247,7.0,12.0,73,0.00,,,0.00,Weather View 32 v70,2013-11-11 04:25:00,
2013-11-10 23:30:00,55.0,46.5,29.76,WSW,247,8.0,12.0,73,0.00,,,0.00,Weather View 32 v70,2013-11-11 04:30:00,
2013-11-10 23:35:00,55.0,46.5,29.76,WSW,247,9.0,12.0,73,0.00,,,0.00,Weather View 32 v70,2013-11-11 04:35:00,
2013-11-10 23:40:00,55.0,46.5,29.78,WSW,247,9.0,12.0,73,0.00,,,0.00,Weather View 32 v70,2013-11-11 04:40:00,
2013-11-10 23:45:00,54.0,45.5,29.78,WSW,247,11.0,12.0,73,0.00,,,0.00,Weather View 32 v70,2013-11-11 04:45:00,
2013-11-10 23:50:00,54.0,45.5,29.77,WSW,247,10.0,13.0,73,0.00,,,0.00,Weather View 32 v70,2013-11-11 04:50:00,
2013-11-10 23:55:00,54.0,45.5,29.77,WSW,247,10.0,13.0,73,0.00,,,0.00,Weather View 32 v70,2013-11-11 04:55:00,